• Em Portugal
  • Lista de países
  • Para 7 dias
  • Temperatura da água
  • Mapas de satélite
  • Mapa do tempo
  • Widgets de tempo
  • user-avatar
    Iniciar Sessão

    Previsão horária em Abovyan

    Hoje, 22 Novembro, Quarta-feira

    Tempo Temperatura Precipitação Vento Pressão Humidade
    00:00 +9°C° 0,1 mm 3 m/s 662 mmHg 79%
    01:00 +8°C° 0,4 mm 3 m/s 662 mmHg 80%
    02:00 +8°C° 0,4 mm 2 m/s 662 mmHg 80%
    03:00 +8°C° 0,4 mm 2 m/s 662 mmHg 81%
    04:00 +8°C° 1,3 mm 2 m/s 662 mmHg 82%
    05:00 +7°C° 1,3 mm 2 m/s 662 mmHg 83%
    06:00 +7°C° 1,3 mm 3 m/s 662 mmHg 84%
    07:00 +5°C° 1,3 mm 3 m/s 662 mmHg 83%
    08:00 +6°C° 1,3 mm 2 m/s 662 mmHg 83%
    09:00 +6°C° 1,3 mm 2 m/s 662 mmHg 82%
    10:00 +6°C° 0,9 mm 2 m/s 662 mmHg 80%
    11:00 +6°C° 0,9 mm 2 m/s 662 mmHg 78%
    12:00 +6°C° 0,9 mm 2 m/s 662 mmHg 76%
    13:00 +6°C° 0,3 mm 2 m/s 663 mmHg 74%
    14:00 +6°C° 0,3 mm 2 m/s 663 mmHg 72%
    15:00 +6°C° 0,3 mm 2 m/s 663 mmHg 69%
    16:00 +5°C° 0,2 mm 2 m/s 663 mmHg 71%
    17:00 +4°C° 0,2 mm 2 m/s 664 mmHg 72%
    18:00 +4°C° 0,2 mm 2 m/s 664 mmHg 74%
    19:00 +3°C° 0,1 mm 2 m/s 665 mmHg 74%
    20:00 +3°C° 0,1 mm 2 m/s 665 mmHg 74%
    21:00 +2°C° 0,1 mm 2 m/s 665 mmHg 74%
    22:00 +2°C° 0,1 mm 2 m/s 665 mmHg 74%
    23:00 +2°C° 0,1 mm 1 m/s 666 mmHg 74%

    Amanhã, 23 Novembro, Quinta-feira

    Tempo Temperatura Precipitação Vento Pressão Humidade
    00:00 +2°C° 0,1 mm 1 m/s 666 mmHg 74%
    01:00 +2°C° 0 mm 1 m/s 666 mmHg 73%
    02:00 +1°C° 0 mm 1 m/s 666 mmHg 73%
    03:00 +1°C° 0 mm 1 m/s 666 mmHg 72%
    04:00 0°C° 0 mm 1 m/s 666 mmHg 71%
    05:00 0°C° 0 mm 1 m/s 666 mmHg 70%
    06:00 -1°C° 0 mm 1 m/s 667 mmHg 69%
    07:00 0°C° 0 mm 1 m/s 667 mmHg 69%
    08:00 -1°C° 0 mm 2 m/s 667 mmHg 68%
    09:00 -1°C° 0 mm 2 m/s 668 mmHg 67%
    10:00 +1°C° 0,1 mm 2 m/s 668 mmHg 65%
    11:00 +1°C° 0,1 mm 3 m/s 667 mmHg 63%
    12:00 +1°C° 0,1 mm 3 m/s 667 mmHg 61%
    13:00 +2°C° 0,1 mm 3 m/s 667 mmHg 60%
    14:00 +2°C° 0,1 mm 3 m/s 667 mmHg 60%
    15:00 +2°C° 0,1 mm 3 m/s 667 mmHg 59%
    16:00 +1°C° 0,1 mm 3 m/s 667 mmHg 62%
    17:00 +1°C° 0,1 mm 2 m/s 667 mmHg 65%
    18:00 -1°C° 0,1 mm 2 m/s 668 mmHg 68%
    19:00 -1°C° 0,2 mm 2 m/s 668 mmHg 69%
    20:00 +1°C° 0,2 mm 1 m/s 669 mmHg 71%
    21:00 +1°C° 0,2 mm 1 m/s 669 mmHg 72%
    22:00 +1°C° 0,1 mm 1 m/s 669 mmHg 72%
    23:00 0°C° 0,1 mm 1 m/s 669 mmHg 73%

    Depois de amanhã, 24 Novembro, Sexta-feira

    Tempo Temperatura Precipitação Vento Pressão Humidade
    00:00 0°C° 0,1 mm 1 m/s 669 mmHg 73%
    01:00 0°C° 0,2 mm 1 m/s 669 mmHg 74%
    02:00 0°C° 0,2 mm 1 m/s 669 mmHg 76%
    03:00 -1°C° 0,2 mm 1 m/s 669 mmHg 77%
    04:00 -1°C° 0,3 mm 1 m/s 669 mmHg 77%
    05:00 -1°C° 0,3 mm 1 m/s 669 mmHg 78%
    06:00 -1°C° 0,3 mm 1 m/s 669 mmHg 78%
    07:00 -1°C° 0,2 mm 1 m/s 670 mmHg 76%
    08:00 0°C° 0,2 mm 1 m/s 670 mmHg 73%
    09:00 0°C° 0,2 mm 1 m/s 671 mmHg 71%
    10:00 0°C° 0,1 mm 1 m/s 670 mmHg 69%
    11:00 +1°C° 0,1 mm 1 m/s 670 mmHg 66%
    12:00 +1°C° 0,1 mm 1 m/s 670 mmHg 64%
    13:00 +1°C° 0,1 mm 1 m/s 670 mmHg 64%
    14:00 +1°C° 0,1 mm 1 m/s 670 mmHg 63%
    15:00 +1°C° 0,1 mm 1 m/s 670 mmHg 63%
    16:00 0°C° 0,1 mm 1 m/s 670 mmHg 65%
    17:00 -1°C° 0,1 mm 1 m/s 671 mmHg 68%
    18:00 -2°C° 0,1 mm 1 m/s 671 mmHg 70%
    19:00 -2°C° 0,1 mm 1 m/s 671 mmHg 70%
    20:00 -2°C° 0,1 mm 1 m/s 672 mmHg 71%
    21:00 -2°C° 0,1 mm 1 m/s 672 mmHg 71%
    22:00 -2°C° 0,1 mm 1 m/s 672 mmHg 72%
    23:00 -3°C° 0,1 mm 1 m/s 673 mmHg 73%

    25 Novembro, Sábado

    Tempo Temperatura Precipitação Vento Pressão Humidade
    00:00 -3°C° 0,1 mm 1 m/s 673 mmHg 74%
    01:00 -3°C° 0,1 mm 1 m/s 673 mmHg 74%
    02:00 -3°C° 0,1 mm 1 m/s 673 mmHg 74%
    03:00 -4°C° 0,1 mm 1 m/s 674 mmHg 75%
    04:00 -4°C° 0 mm 1 m/s 674 mmHg 75%
    05:00 -4°C° 0 mm 1 m/s 674 mmHg 74%
    06:00 -6°C° 0 mm 1 m/s 675 mmHg 74%
    07:00 -4°C° 0 mm 1 m/s 675 mmHg 72%
    08:00 -3°C° 0 mm 1 m/s 676 mmHg 69%
    09:00 -2°C° 0 mm 1 m/s 677 mmHg 67%
    10:00 -1°C° 0 mm 1 m/s 676 mmHg 63%
    11:00 -1°C° 0 mm 1 m/s 676 mmHg 60%
    12:00 0°C° 0 mm 1 m/s 676 mmHg 56%
    13:00 0°C° 0 mm 1 m/s 676 mmHg 56%
    14:00 0°C° 0 mm 1 m/s 676 mmHg 56%
    15:00 0°C° 0 mm 1 m/s 676 mmHg 55%
    16:00 -3°C° 0 mm 2 m/s 676 mmHg 57%
    17:00 -4°C° 0 mm 2 m/s 677 mmHg 58%
    18:00 -6°C° 0 mm 2 m/s 677 mmHg 59%
    19:00 -6°C° 0 mm 2 m/s 677 mmHg 59%
    20:00 -6°C° 0 mm 2 m/s 677 mmHg 59%
    21:00 -7°C° 0 mm 2 m/s 678 mmHg 59%
    22:00 -6°C° 0 mm 1 m/s 678 mmHg 59%
    23:00 -6°C° 0 mm 1 m/s 678 mmHg 59%

    26 Novembro, Domingo

    Tempo Temperatura Precipitação Vento Pressão Humidade
    00:00 -6°C° 0 mm 1 m/s 678 mmHg 60%
    01:00 -6°C° 0 mm 1 m/s 678 mmHg 59%
    02:00 -6°C° 0 mm 1 m/s 678 mmHg 59%
    03:00 -6°C° 0 mm 1 m/s 677 mmHg 58%
    04:00 -6°C° 0 mm 1 m/s 677 mmHg 58%
    05:00 -6°C° 0 mm 1 m/s 677 mmHg 58%
    06:00 -6°C° 0 mm 1 m/s 677 mmHg 57%
    07:00 -4°C° 0 mm 1 m/s 677 mmHg 56%
    08:00 -3°C° 0 mm 1 m/s 677 mmHg 55%
    09:00 -2°C° 0 mm 1 m/s 678 mmHg 55%
    10:00 0°C° 0 mm 1 m/s 677 mmHg 52%
    11:00 -1°C° 0 mm 2 m/s 677 mmHg 50%
    12:00 +1°C° 0 mm 2 m/s 676 mmHg 48%
    13:00 +1°C° 0 mm 2 m/s 676 mmHg 48%
    14:00 +2°C° 0 mm 1 m/s 676 mmHg 48%
    15:00 +2°C° 0 mm 1 m/s 675 mmHg 48%
    16:00 +1°C° 0 mm 1 m/s 676 mmHg 48%
    17:00 0°C° 0 mm 1 m/s 676 mmHg 47%
    18:00 -2°C° 0 mm 1 m/s 676 mmHg 47%
    19:00 -2°C° 0 mm 1 m/s 676 mmHg 46%
    20:00 -2°C° 0 mm 1 m/s 676 mmHg 45%
    21:00 -3°C° 0 mm 1 m/s 676 mmHg 44%
    22:00 -3°C° 0 mm 1 m/s 676 mmHg 44%
    23:00 -3°C° 0 mm 1 m/s 676 mmHg 44%

    27 Novembro, Segunda-feira

    Tempo Temperatura Precipitação Vento Pressão Humidade
    00:00 -3°C° 0 mm 1 m/s 676 mmHg 44%
    01:00 -3°C° 0 mm 1 m/s 676 mmHg 44%
    02:00 -3°C° 0 mm 1 m/s 676 mmHg 44%
    03:00 -5°C° 0 mm 2 m/s 676 mmHg 44%
    04:00 -5°C° 0 mm 2 m/s 675 mmHg 44%
    05:00 -5°C° 0 mm 2 m/s 675 mmHg 44%
    06:00 -5°C° 0 mm 2 m/s 675 mmHg 44%
    07:00 -4°C° 0 mm 2 m/s 675 mmHg 44%
    08:00 0°C° 0 mm 1 m/s 676 mmHg 44%
    09:00 +1°C° 0 mm 1 m/s 676 mmHg 44%
    10:00 +1°C° 0 mm 2 m/s 676 mmHg 43%
    11:00 +3°C° 0 mm 2 m/s 675 mmHg 42%
    12:00 +4°C° 0 mm 2 m/s 675 mmHg 41%
    13:00 +4°C° 0 mm 2 m/s 674 mmHg 41%
    14:00 +4°C° 0 mm 2 m/s 674 mmHg 41%
    15:00 +4°C° 0 mm 2 m/s 674 mmHg 40%
    16:00 +3°C° 0 mm 2 m/s 674 mmHg 39%
    17:00 +1°C° 0 mm 2 m/s 674 mmHg 38%
    18:00 -1°C° 0 mm 2 m/s 674 mmHg 37%
    19:00 -1°C° 0 mm 2 m/s 674 mmHg 37%
    20:00 -2°C° 0 mm 2 m/s 674 mmHg 37%
    21:00 -2°C° 0 mm 2 m/s 674 mmHg 36%
    22:00 0°C° 0 mm 1 m/s 674 mmHg 37%
    23:00 0°C° 0 mm 1 m/s 674 mmHg 37%
    Mostrar mais